Date,TemperatureHighF,TemperatureAvgF,TemperatureLowF,DewpointHighF,DewpointAvgF,DewpointLowF,HumidityHigh,HumidityAvg,HumidityLow,PressureMaxIn,PressureMinIn,WindSpeedMaxMPH,WindSpeedAvgMPH,GustSpeedMaxMPH,PrecipitationSumIn
2013-8-1,69.5,63.2,59.6,56.5,53.9,52.0,79,72,62,30.10,30.04,8,2,12,0.00
2013-8-2,81.0,67.1,58.7,57.3,54.0,51.8,83,65,41,30.13,30.06,11,2,11,0.00
2013-8-3,83.9,69.7,54.5,60.3,55.7,49.1,86,64,40,30.09,29.94,13,3,13,0.00
2013-8-4,90.2,75.7,57.2,63.7,57.9,51.9,85,57,33,30.00,29.86,13,2,14,0.00
2013-8-5,92.2,77.7,58.9,63.8,57.2,50.2,83,52,33,29.98,29.86,10,2,10,0.00
2013-8-6,93.8,78.0,55.8,58.2,48.2,37.1,74,40,15,29.98,29.85,11,2,11,0.00
2013-8-7,86.8,72.0,58.0,60.0,52.7,46.7,77,52,31,30.02,29.91,12,2,12,0.00
2013-8-8,85.9,70.5,57.1,60.8,56.0,50.6,84,62,42,30.04,29.87,12,3,12,0.00
2013-8-9,86.6,73.1,62.5,61.3,56.8,52.4,73,58,38,29.92,29.80,12,2,12,0.00
2013-8-10,88.6,71.4,58.9,64.4,57.8,52.4,82,64,38,30.02,29.88,9,2,9,0.01
2013-8-11,80.3,66.2,57.6,61.6,56.2,52.0,85,71,50,30.06,29.96,10,2,10,0.00
2013-8-12,79.9,67.7,59.8,61.7,55.7,49.6,83,67,45,30.05,29.98,12,2,12,0.00
2013-8-13,86.6,71.3,51.3,60.2,52.1,45.5,84,54,27,30.09,29.89,8,2,8,0.00
2013-8-14,89.8,72.9,57.4,60.0,54.7,47.1,84,56,24,29.95,29.89,13,2,13,0.00
2013-8-15,85.5,74.4,66.8,66.4,62.4,57.9,80,67,50,29.95,29.91,7,2,7,0.00
2013-8-16,87.8,73.6,64.6,67.2,61.3,51.8,83,67,43,30.02,29.94,12,2,12,0.00
2013-8-17,88.6,73.8,56.7,62.6,57.3,50.6,85,59,40,30.07,29.99,13,3,13,0.00
2013-8-18,86.4,75.5,57.2,61.5,58.2,52.4,84,57,40,30.11,30.00,12,2,12,0.00
2013-8-19,89.3,73.8,57.6,63.7,56.0,52.0,85,57,33,30.10,30.00,14,3,14,0.00
2013-8-20,85.0,71.4,51.8,56.3,51.2,44.6,81,52,30,30.11,29.95,17,4,17,0.00
2013-8-21,90.4,74.0,53.5,57.7,52.6,46.3,81,51,31,29.98,29.80,9,2,9,0.00
2013-8-22,87.1,72.1,59.4,61.6,56.2,52.2,83,60,35,29.88,29.81,8,2,8,0.00
2013-8-23,78.7,65.7,56.7,59.0,55.5,52.0,87,71,48,29.93,29.86,10,2,10,0.00
2013-8-24,79.6,69.5,61.2,60.7,55.9,52.3,82,64,43,29.89,29.82,8,2,8,0.00
2013-8-25,75.6,67.0,55.3,60.8,57.0,49.3,82,71,57,29.92,29.87,7,2,7,0.06
2013-8-26,81.4,67.7,56.3,60.5,54.8,47.4,88,67,35,29.95,29.87,13,3,13,0.05
2013-8-27,85.7,71.7,61.6,64.1,59.1,56.4,90,67,41,29.94,29.76,16,2,16,0.00
2013-8-28,85.7,73.0,59.9,67.9,60.6,56.1,90,67,45,29.88,29.81,10,2,10,0.02
2013-8-29,80.3,70.3,64.1,67.5,62.4,59.1,91,77,54,30.05,29.82,19,3,19,0.10
2013-8-30,85.1,74.2,61.7,66.6,59.4,54.7,88,62,40,30.13,30.00,8,1,9,0.00
2013-8-31,88.9,73.0,55.3,63.4,56.6,50.3,87,59,36,30.01,29.78,12,2,12,0.00